This demonstration page uses our WeatherBlox Daily Observations layout. Learn more.

Left ArrowRight Arrow

Hourly Observations for September 25, 2021

Temp ( °F °C ) Dew Point ( °F °C ) Humidity (%) Winds ( mph kmh ) Pressure ( in mb ) Visibility ( mi km ) Precip ( " mm )
12:53 am 00:53 Clear 53 11.7 51 10.6 93 93 N N/A 30.04 1017 10 16 N/A
1:53 am 01:53 Clear 52 11.1 51 10.6 97 97 N N/A 30.03 1017 10 16 N/A
2:53 am 02:53 Clear 51 10.6 51 10.6 100 100 N N/A 30.03 1017 10 16 N/A
3:53 am 03:53 Clear 52 11.1 51 10.6 97 97 N N/A 30.01 1016 10 16 N/A
4:53 am 04:53 Clear 53 11.7 52 11.1 96 96 ESE 3 6 29.99 1016 10 16 N/A
5:53 am 05:53 Clear 55 12.8 53 11.7 93 93 N N/A 29.99 1016 10 16 N/A
6:53 am 06:53 Clear 56 13.3 53 11.7 90 90 VRB 3 6 30.03 1017 10 16 N/A
7:53 am 07:53 Cloudy 58 14.4 53 11.7 84 84 VRB 3 6 30.05 1018 10 16 N/A
8:53 am 08:53 Cloudy 60 15.6 55 12.8 84 84 N N/A 30.04 1017 10 16 N/A
9:53 am 09:53 Sunny 59 15 55 12.8 87 87 VRB 3 6 30.04 1017 10 16 0.01 0.25
10:53 am 10:53 Sunny 60 15.6 57 13.9 90 90 VRB 7 11 30.05 1018 10 16 N/A
11:23 am 11:23 Mostly Cloudy 61 16.1 56 13.3 84 84 W 5 7 30.05 1018 10 16 N/A
11:53 am 11:53 Cloudy 63 17.2 56 13.3 78 78 VRB 7 11 30.06 1018 10 16 N/A
12:53 pm 12:53 Mostly Sunny 66 18.9 53 11.7 63 63 WNW 10 17 30.06 1018 10 16 N/A
1:53 pm 13:53 Mostly Sunny 68 20 48 8.9 49 49 NNW 5 7 30.06 1018 10 16 N/A
2:53 pm 14:53 Sunny 69 20.6 46 7.8 44 44 W 5 7 30.04 1017 10 16 N/A
3:53 pm 15:53 Mostly Sunny 70 21.1 47 8.3 44 44 VRB 7 11 30.04 1017 10 16 N/A
4:53 pm 16:53 Sunny 69 20.6 46 7.8 44 44 NW 12 19 30.04 1017 10 16 N/A
5:53 pm 17:53 Mostly Sunny 67 19.4 44 6.7 44 44 WNW 8 13 30.04 1017 10 16 N/A
6:53 pm 18:53 Sunny 65 18.3 43 6.1 45 45 WNW 9 15 30.06 1018 10 16 N/A
7:53 pm 19:53 Clear 54 12.2 48 8.9 80 80 N N/A 30.05 1018 10 16 N/A
8:53 pm 20:53 Clear 51 10.6 48 8.9 89 89 N N/A 30.06 1018 10 16 N/A
9:53 pm 21:53 Clear 49 9.4 47 8.3 93 93 N N/A 30.08 1019 10 16 N/A
10:53 pm 22:53 Clear 47 8.3 46 7.8 97 97 N N/A 30.08 1019 10 16 N/A
11:53 pm 23:53 Clear 48 8.9 47 8.3 96 96 N N/A 30.09 1019 10 16 N/A

Powered by AerisWeather